Provo, UT

4:53 AM MDT on October 23, 2017 (GMT -0600)
Provo Municipal

Weather History for KPVU - May, 2013

Change the Weather History Date:

Tuesday, May 7, 2013

  Actual Average Record
Temperature  
Mean Temperature 54 °F -  
Max Temperature 66 °F 65 °F 87 °F (1989)
Min Temperature 42 °F 40 °F 28 °F (1984)
Degree Days  
Heating Degree Days 11    
Growing Degree Days 4 (Base 50)    
Moisture  
Dew Point 40 °F    
Average Humidity 72    
Maximum Humidity 93    
Minimum Humidity 35    
Precipitation  
Precipitation 0.31 in - - ()
Sea Level Pressure  
Sea Level Pressure 30.00 in    
Wind  
Wind Speed 9 mph (SE)    
Max Wind Speed 23 mph    
Max Gust Speed 36 mph    
Visibility 11 miles    
Events Rain , Thunderstorm    
Averages and records for this station are not official NWS values.
T = Trace of Precipitation, MM = Missing Value Source: NWS Daily Summary

Daily Weather History Graph

Daily Weather History Graph

Search for Another Location

Airport or City:

Trip Planner

Search our weather history database for the weather conditions in past years. The results will help you decide how hot, cold, wet, or windy it might be!

Date:

Astronomy

May. 07, 2013 Rise Set
Actual Time 6:18 AM MDT 8:28 PM MDT
Civil Twilight 5:48 AM MDT 8:58 PM MDT
Nautical Twilight 5:12 AM MDT 9:35 PM MDT
Astronomical Twilight 4:31 AM MDT 10:16 PM MDT
Moon 4:55 AM MDT (5/7) 6:31 PM MDT (5/7)
Length of Visible Light 15h 09m
Length of Day
14h 09m
Waning Crescent, 5% of the Moon is Illuminated
May 7
Waning Crescent
May 9
New
May 17
First Quarter
May 24
Full
May 31
Last Quarter

Hourly Weather History & Observations

Time (MDT) Temp. Windchill Dew Point Humidity Pressure Visibility Wind Dir Wind Speed Gust Speed Precip Events Conditions
12:15 AM 50.0 °F - 42.8 °F 76% 30.02 in 10.0 mi SE 8.1 mph - N/A   Mostly Cloudy
12:35 AM 50.0 °F - 42.8 °F 76% 30.01 in 10.0 mi SE 12.7 mph - N/A   Partly Cloudy
12:55 AM 50.0 °F - 41.0 °F 71% 30.01 in 10.0 mi SSE 10.4 mph - N/A   Clear
1:15 AM 50.0 °F - 42.8 °F 76% 30.00 in 10.0 mi South 8.1 mph - N/A   Mostly Cloudy
1:35 AM 48.2 °F - 41.0 °F 76% 30.00 in 10.0 mi South 6.9 mph - N/A   Scattered Clouds
1:55 AM 48.2 °F - 41.0 °F 76% 30.00 in 10.0 mi SSE 6.9 mph - N/A   Clear
2:15 AM 48.2 °F - 41.0 °F 76% 30.00 in 10.0 mi SE 10.4 mph - N/A   Clear
2:35 AM 48.2 °F - 41.0 °F 76% 30.00 in 10.0 mi SE 12.7 mph - N/A   Clear
2:55 AM 48.2 °F - 41.0 °F 76% 30.00 in 10.0 mi SE 10.4 mph - N/A   Clear
3:15 AM 48.2 °F - 41.0 °F 76% 30.00 in 10.0 mi SE 8.1 mph - N/A   Clear
3:35 AM 46.4 °F 42.9 °F 39.2 °F 76% 30.00 in 10.0 mi ESE 6.9 mph - N/A   Clear
3:55 AM 46.4 °F 42.9 °F 39.2 °F 76% 30.00 in 10.0 mi SSE 6.9 mph - N/A   Mostly Cloudy
4:15 AM 46.4 °F 42.4 °F 39.2 °F 76% 30.00 in 10.0 mi SSE 8.1 mph - N/A   Mostly Cloudy
4:35 AM 46.4 °F 42.4 °F 39.2 °F 76% 30.00 in 10.0 mi SE 8.1 mph - N/A   Scattered Clouds
4:55 AM 48.2 °F - 39.2 °F 71% 30.00 in 10.0 mi SE 9.2 mph - N/A   Mostly Cloudy
5:15 AM 48.2 °F - 39.2 °F 71% 29.99 in 10.0 mi SSE 11.5 mph - N/A   Mostly Cloudy
5:35 AM 46.4 °F 41.5 °F 39.2 °F 76% 29.99 in 10.0 mi SSE 10.4 mph - N/A   Partly Cloudy
5:55 AM 46.4 °F 41.9 °F 39.2 °F 76% 29.99 in 10.0 mi South 9.2 mph - N/A   Clear
6:15 AM 44.6 °F 39.7 °F 39.2 °F 81% 29.99 in 10.0 mi SSE 9.2 mph - N/A   Clear
6:35 AM 44.6 °F 41.4 °F 39.2 °F 81% 29.99 in 10.0 mi East 5.8 mph - N/A   Clear
6:49 AM 42.8 °F 39.3 °F 37.4 °F 81% 29.99 in 15.0 mi East 5.8 mph - N/A   Scattered Clouds
7:56 AM 51.8 °F - 39.2 °F 62% 30.00 in 15.0 mi South 9.2 mph - N/A   Scattered Clouds
8:54 AM 51.8 °F - 39.2 °F 62% 30.00 in 15.0 mi SW 6.9 mph - N/A   Partly Cloudy
9:51 AM 55.4 °F - 39.2 °F 54% 30.00 in 15.0 mi SE 5.8 mph - N/A   Partly Cloudy
11:50 AM 60.8 °F - 41.0 °F 48% 29.98 in 15.0 mi Variable 5.8 mph - N/A   Mostly Cloudy
2:50 PM 66.2 °F - 37.4 °F 35% 29.93 in 15.0 mi East 8.1 mph - N/A   Mostly Cloudy
4:50 PM 62.6 °F - 35.6 °F 37% 29.90 in 15.0 mi Variable 5.8 mph - N/A   Mostly Cloudy
5:22 PM 62.6 °F - 39.2 °F 42% 29.94 in 15.0 mi SSE 23.0 mph 35.7 mph N/A Thunderstorm Thunderstorm
5:50 PM 53.6 °F - 42.8 °F 67% 30.00 in 10.0 mi SE 23.0 mph 34.5 mph N/A Rain , Thunderstorm Thunderstorms and Rain
6:49 PM 46.4 °F 41.1 °F 44.6 °F 93% 30.05 in 6.0 mi East 11.5 mph - N/A Rain Rain
7:58 PM 46.4 °F 38.7 °F 44.6 °F 93% 29.99 in 12.0 mi North 20.7 mph - N/A   Overcast
8:47 PM 48.2 °F - 41.0 °F 76% 30.01 in 15.0 mi Calm Calm - N/A   Mostly Cloudy
9:15 PM 46.4 °F 41.9 °F 41.0 °F 81% 30.01 in 10.0 mi South 9.2 mph 20.7 mph N/A   Clear
9:35 PM 48.2 °F - 41.0 °F 76% 30.01 in 10.0 mi SE 8.1 mph 18.4 mph N/A   Clear
9:55 PM 46.4 °F 42.4 °F 41.0 °F 81% 30.02 in 10.0 mi South 8.1 mph - N/A   Clear
10:15 PM 48.2 °F - 39.2 °F 71% 30.02 in 10.0 mi SSE 9.2 mph - N/A   Clear
10:35 PM 46.4 °F 41.5 °F 39.2 °F 76% 30.03 in 10.0 mi South 10.4 mph - N/A   Clear
10:55 PM 46.4 °F 44.3 °F 41.0 °F 81% 30.04 in 10.0 mi ESE 4.6 mph - N/A   Clear
11:15 PM 46.4 °F 42.4 °F 41.0 °F 81% 30.04 in 10.0 mi ESE 8.1 mph - N/A   Clear
11:35 PM 46.4 °F 43.5 °F 39.2 °F 76% 30.03 in 10.0 mi ESE 5.8 mph - N/A   Scattered Clouds
11:55 PM 46.4 °F 42.9 °F 39.2 °F 76% 30.03 in 10.0 mi SE 6.9 mph - N/A   Partly Cloudy